This demonstration page uses our WeatherBlox Daily Observations layout. Learn more.

Hourly Observations for August 26, 2016

Temp ( °F °C ) Dew Point ( °F °C ) Humidity (%) Winds ( mph kmh ) Pressure ( in mb ) Visibility ( mi km ) Precip ( " mm )
12:15 am 00:15 Clear 59 15.2 56 13.1 87 87 E 3 6 30.15 1021 10 16.09344 0 0
12:35 am 00:35 Clear 58 14.7 55 13 90 90 E 3 6 30.15 1021 10 16.09344 0 0
12:55 am 00:55 Clear 58 14.4 55 13 91 91 Calm 30.15 1021 10 16.09344 0 0
1:15 am 01:15 Clear 57 14.1 55 12.8 92 92 Calm 30.18 1022 10 16.09344 0 0
1:35 am 01:35 Clear 57 13.8 55 12.7 93 93 Calm 30.15 1021 10 16.09344 0 0
1:55 am 01:55 Clear 57 13.8 55 12.6 93 93 Calm 30.15 1021 10 16.09344 0 0
2:15 am 02:15 Clear 57 13.7 55 12.5 93 93 Calm 30.15 1021 10 16.09344 0 0
2:35 am 02:35 Clear 56 13.5 55 12.5 94 94 Calm 30.15 1021 10 16.09344 0 0
2:55 am 02:55 Clear 56 13.1 54 12 93 93 E 6 9 30.12 1020 10 16.09344 0 0
3:15 am 03:15 Clear with Mist and Fog 56 13.6 55 12.5 93 93 E 5 7 30.12 1020 3 4.828032 0 0
3:35 am 03:35 Clear with Mist and Fog 58 14.2 56 13.1 93 93 E 3 6 30.09 1019 3 4.828032 0 0
3:55 am 03:55 Clear 57 13.7 55 12.6 93 93 Calm 30.12 1020 7 11.265408 0 0
4:15 am 04:15 Clear 56 13.5 55 12.6 94 94 N 3 6 30.12 1020 10 16.09344 0 0
4:35 am 04:35 Clear 55 13 54 12.1 94 94 Calm 30.15 1021 7 11.265408 0 0
4:55 am 04:55 Partly Cloudy 55 13 54 12.2 95 95 ENE 3 6 30.15 1021 7 11.265408 0 0
5:15 am 05:15 Cloudy 56 13.5 55 12.6 94 94 ENE 3 6 30.12 1020 7 11.265408 0 0
5:35 am 05:35 Cloudy 57 13.7 55 13 96 96 Calm 30.15 1021 7 11.265408 0 0
5:55 am 05:55 Cloudy with Mist and Fog 58 14.3 56 13.5 95 95 Calm 30.12 1020 5 8.04672 0 0
6:15 am 06:15 Cloudy with Mist and Fog 58 14.6 56 13.5 93 93 E 5 7 30.12 1020 2 3.218688 0 0
6:35 am 06:35 Cloudy with Mist and Fog 59 14.8 56 13.6 93 93 ESE 3 6 30.12 1020 2 3.218688 0 0
6:55 am 06:55 Cloudy with Mist and Fog 59 14.8 56 13.6 93 93 ESE 5 7 30.12 1020 2 3.218688 0 0
7:15 am 07:15 Cloudy with Mist and Fog 59 14.9 56 13.6 92 92 Calm 30.12 1020 2 3.218688 0 0
7:35 am 07:35 Cloudy with Mist and Fog 59 15 56 13.6 91 91 Calm 30.12 1020 2.5 4.02336 0 0
7:55 am 07:55 Cloudy with Mist and Fog 59 15 57 13.7 92 92 Calm 30.12 1020 4 6.437376 0 0
8:15 am 08:15 Cloudy 59 15.1 56 13.6 91 91 Calm 30.12 1020 10 16.09344 0 0
8:35 am 08:35 Cloudy 60 15.3 57 13.9 91 91 Calm 30.12 1020 10 16.09344 0 0
8:55 am 08:55 Cloudy 60 15.5 57 13.9 90 90 ENE 3 6 30.09 1019 10 16.09344 0 0
9:15 am 09:15 Cloudy 60 15.8 58 14.2 90 90 ENE 5 7 30.09 1019 10 16.09344 0 0
9:35 am 09:35 Cloudy 61 16 58 14.2 89 89 NE 3 6 30.09 1019 10 16.09344 0 0
9:55 am 09:55 Cloudy with Mist and Fog 62 16.5 58 14.3 87 87 E 7 11 30.09 1019 1.5 2.414016 0 0
10:15 am 10:15 Cloudy with Haze 63 17.2 58 14.7 85 85 E 6 9 30.06 1018 1.25 2.01168 0 0
10:35 am 10:35 Cloudy with Haze 64 18 59 15 83 83 ESE 7 11 30.06 1018 1 1.609344 0 0
10:55 am 10:55 Mostly Cloudy with Haze 65 18.1 59 15 82 82 E 8 13 30.06 1018 1 1.609344 0 0
11:15 am 11:15 Mostly Cloudy with Haze 65 18.5 59 14.8 79 79 ESE 7 11 30.06 1018 1 1.609344 0 0
11:35 am 11:35 Sunny 66 19 58 14.2 74 74 ESE 7 11 30.06 1018 10 16.09344 0 0
11:55 am 11:55 Sunny 67 19.3 58 14.2 72 72 E 10 17 30.06 1018 10 16.09344 0 0
12:15 pm 12:15 Sunny 68 20 57 13.8 68 68 ESE 9 15 30.06 1018 10 16.09344 0 0
12:35 pm 12:35 Sunny 68 20.1 56 13.4 66 66 ESE 9 15 30.06 1018 10 16.09344 0 0
12:55 pm 12:55 Sunny 69 20.3 57 13.7 66 66 E 12 19 30.06 1018 10 16.09344 0 0
1:15 pm 13:15 Partly Cloudy 69 20.6 55 13 62 62 E 7 11 30.06 1018 10 16.09344 0 0
1:35 pm 13:35 Partly Cloudy 69 20.7 56 13.2 62 62 SE 6 9 30 1016 10 16.09344 0 0
1:55 pm 13:55 Partly Cloudy 69 20.8 57 13.8 64 64 ESE 8 13 30 1016 10 16.09344 0 0
2:15 pm 14:15 Mostly Cloudy 70 21.1 57 13.8 63 63 ESE 5 7 30 1016 10 16.09344 0 0
2:35 pm 14:35 Cloudy 70 21 56 13.6 63 63 SE 7 11 30 1016 10 16.09344 0 0
2:55 pm 14:55 Cloudy 70 21 57 14.1 65 65 E 7 11 30 1016 10 16.09344 0 0
3:15 pm 15:15 Cloudy 70 21.2 58 14.6 66 66 ESE 8 13 30 1016 10 16.09344 0 0
3:35 pm 15:35 Partly Cloudy 71 21.5 58 14.3 64 64 E 8 13 29.97 1015 10 16.09344 0 0
3:55 pm 15:55 Partly Cloudy 71 21.7 57 14 62 62 E 12 19 29.97 1015 10 16.09344 0 0
4:15 pm 16:15 Mostly Cloudy 71 21.8 57 13.8 61 61 E 8 13 29.97 1015 10 16.09344 0 0
4:35 pm 16:35 Cloudy 71 21.8 57 13.7 60 60 ESE 8 13 29.97 1015 10 16.09344 0 0
4:55 pm 16:55 Mostly Cloudy 73 22.6 57 14 58 58 E 5 7 29.97 1015 10 16.09344 0 0
5:15 pm 17:15 Mostly Cloudy 72 22 57 14.1 61 61 ENE 6 9 29.97 1015 10 16.09344 0 0
5:35 pm 17:35 Cloudy 72 22.1 57 14.1 61 61 ESE 5 7 29.97 1015 10 16.09344 0 0
5:55 pm 17:55 Mostly Cloudy 71 21.6 57 14 62 62 E 3 6 29.97 1015 10 16.09344 0 0
6:15 pm 18:15 Partly Cloudy 72 22.2 57 14.1 60 60 E 6 9 29.94 1014 10 16.09344 0 0
6:35 pm 18:35 Partly Cloudy 72 22.2 57 14 60 60 E 6 9 29.94 1014 10 16.09344 0 0
6:55 pm 18:55 Sunny 70 21.1 58 14.3 65 65 E 6 9 29.94 1014 10 16.09344 0 0
7:15 pm 19:15 Sunny 68 20.1 59 14.9 72 72 ENE 3 6 29.94 1014 10 16.09344 0 0
7:35 pm 19:35 Sunny 67 19.2 60 15.6 80 80 Calm 29.97 1015 10 16.09344 0 0
7:55 pm 19:55 Partly Cloudy 65 18.6 61 16 85 85 NNE 3 6 30 1016 10 16.09344 0 0
8:15 pm 20:15 Sunny 65 18.5 61 16 85 85 NNE 3 6 30 1016 10 16.09344 0 0
8:35 pm 20:35 Partly Cloudy 65 18.5 61 16 85 85 Calm 30 1016 10 16.09344 0 0
8:55 pm 20:55 Partly Cloudy 65 18.4 60 15.8 85 85 ESE 8 13 30 1016 10 16.09344 0 0
9:15 pm 21:15 Mostly Cloudy 66 18.8 60 15.6 82 82 Calm 30 1016 10 16.09344 0 0
9:35 pm 21:35 Cloudy with Rain 65 18.4 61 16.1 87 87 SSW 5 7 30.03 1017 10 16.09344 0 0
9:55 pm 21:55 Cloudy with Light Rain 65 18.5 61 16 85 85 S 8 13 30 1016 10 16.09344 0 0
10:15 pm 22:15 Cloudy with Rain 65 18.2 61 16 87 87 S 7 11 30 1016 10 16.09344 0.01 0.254
10:35 pm 22:35 Cloudy with Rain 64 18 61 16.2 89 89 SSW 8 13 30 1016 7 11.265408 0.05 1.27
10:55 pm 22:55 Cloudy with Rain 64 17.9 62 16.5 92 92 SSW 10 17 30 1016 10 16.09344 0.08 2.032
11:15 pm 23:15 Cloudy with Rain 64 17.8 62 16.4 92 92 SSW 12 19 29.97 1015 7 11.265408 0.05 1.27
11:35 pm 23:35 Cloudy with Light Rain 64 17.5 61 16 91 91 SE 12 19 29.94 1014 10 16.09344 0.08 2.032
11:55 pm 23:55 Mostly Cloudy 64 17.5 61 16.1 92 92 SSE 7 11 29.94 1014 10 16.09344 0.08 2.032

Powered by AerisWeather